Location: Haram ta Haram Freeway
(35.0583°N, 51.4202°E)
Time: 05:19:01
(UTC+04:30)

FALCONSAT 3 - Visible Passes

Search period start: 07 July 2020 00:00
Search period end: 17 July 2020 00:00
Orbit: 450 x 454 km, 35.4° (Epoch: 06 July)

Date Brightness Start Highest point End Pass type
(mag) Time Alt. Az. Time Alt. Az. Time Alt. Az.
07 Jul ? 21:03:13 10° W 21:06:49 86° S 21:10:25 10° E visible
07 Jul ? 22:42:02 10° W 22:44:43 48° W 22:44:43 48° W visible
08 Jul ? 22:03:46 10° W 22:07:22 87° N 22:08:17 48° E visible
09 Jul ? 21:25:29 10° W 21:29:05 85° N 21:31:48 17° E visible
09 Jul ? 23:04:20 10° W 23:05:22 18° W 23:05:22 18° W visible
10 Jul ? 20:47:12 10° W 20:50:48 83° N 20:54:24 10° E visible
10 Jul ? 22:26:02 10° W 22:28:51 43° WSW 22:28:51 43° WSW visible
11 Jul ? 21:47:44 10° W 21:51:16 57° SSW 21:52:19 38° SE visible
12 Jul ? 21:09:26 10° W 21:13:00 62° SSW 21:15:47 15° ESE visible
12 Jul ? 22:48:52 10° WSW 22:49:21 12° WSW 22:49:21 12° WSW visible
13 Jul ? 22:10:25 10° WSW 22:12:51 21° SW 22:12:51 21° SW visible
14 Jul ? 21:32:00 10° W 21:34:56 24° SSW 21:36:22 19° S visible
15 Jul ? 20:53:37 10° W 20:56:41 27° SSW 20:59:46 10° SE visible
